Regional Weather Roundup
Issued by NWS Little Rock, AR

Home | Current Version | Previous Version | Graphics & Text | Print | Product List | Glossary On
Versions: 1 2 3 4 5 6 7 8 9 10 11 12 13 14 15 16 17 18 19 20 21 22 23 24 25 26 27 28 29 30 31 32 33 34 35 36 37 38 39 40 41 42 43 44 45 46 47 48 49 50
000
ASUS44 KLZK 280805
RWRLZK

WEATHER ROUNDUP FOR ARKANSAS
NATIONAL WEATHER SERVICE LITTLE ROCK AR
300 AM CDT THU AUG 28 2014

NOTE: "FAIR" INDICATES FEW OR NO CLOUDS BELOW 12,000 FEET WITH NO
SIGNIFICANT WEATHER AND/OR OBSTRUCTIONS TO VISIBILITY.

ARZ001-003-010-029-280900-
NORTHWEST ARKANSAS

CITY           SKY/WX    TMP DP  RH WIND       PRES   REMARKS
FAYETTEVILLE   CLEAR     69  68  96 CALM      30.05S
FORT SMITH     PTCLDY    76  72  87 E6        29.99F
HARRISON       CLEAR     70  69  97 SE3       30.06F
BENTONVILLE    CLEAR     73  66  78 S5        30.05S
ROGERS         CLEAR     74  67  78 SE5       30.05F
SILOAM SPGS    CLEAR     70  63  78 CALM      30.05S
HIGHFILL       CLEAR     71  67  87 CALM      30.04S
$$

ARZ004-005-016-280900-
NORTH CENTRAL ARKANSAS

CITY           SKY/WX    TMP DP  RH WIND       PRES   REMARKS
BATESVILLE     CLEAR     72  68  88 CALM      30.02S
FLIPPIN        CLEAR     72  64  78 CALM      30.04S
MTN HOME       CLEAR     73  68  84 CALM      30.03F
$$

ARZ040-041-280900-
WEST CENTRAL ARKANSAS

CITY           SKY/WX    TMP DP  RH WIND       PRES   REMARKS
MENA           CLEAR     68  66  94 CALM      30.04S
MOUNT IDA      CLEAR     69  67  93 CALM      30.01S FOG
$$

ARZ009-017-025-026-028-280900-
NORTHEAST ARKANSAS

CITY           SKY/WX    TMP DP  RH WIND       PRES   REMARKS
CORNING          N/A     75  75 100 NE7       30.02F FOG
JONESBORO      CLEAR     72  69  90 CALM      30.01F
NEWPORT        CLEAR     76  72  87 CALM      30.02F
WALNUT RIDGE   CLEAR     72  70  94 CALM      30.01S
BLYTHEVILLE    CLEAR     76  74  93 S3        30.01F
$$

ARZ022-023-033-042-044-280900-
CENTRAL ARKANSAS

CITY           SKY/WX    TMP DP  RH WIND       PRES   REMARKS
LITTLE ROCK    CLEAR     74  69  85 CALM      30.01F
N LITTLE ROCK    N/A     74  70  87 CALM      30.01F
JACKSONVILLE   CLEAR     71  68  91 CALM      30.01F FOG
SEARCY         CLEAR     71  70  97 CALM      30.03S FOG
HOT SPRINGS    CLEAR     72  69  90 CALM      30.02F
RUSSELLVILLE   CLEAR     71  69  93 CALM      30.02S
CLINTON        FAIR      70  70 100 CALM      30.04S FOG
$$

ARZ036-280900-
EAST ARKANSAS

CITY           SKY/WX    TMP DP  RH WIND       PRES   REMARKS
WEST MEMPHIS   CLEAR     71  70  96 CALM      30.00F
$$

ARZ050-053-066-070-073-280900-
SOUTHWEST ARKANSAS

CITY           SKY/WX    TMP DP  RH WIND       PRES   REMARKS
ARKADELPHIA    FAIR      70  70 100 CALM      30.00F FOG
CAMDEN         CLEAR     68  64  88 CALM      30.00S
TEXARKANA      CLEAR     72  67  84 CALM      30.00S
EL DORADO      PTCLDY    70  68  93 CALM      30.00F
DE QUEEN       FOG       69  69 100 CALM      29.99S VSB 1/4
$$

ARZ056-057-069-280900-
SOUTHEAST ARKANSAS

CITY           SKY/WX    TMP DP  RH WIND       PRES   REMARKS
PINE BLUFF     CLEAR     70  68  93 CALM      30.01F
STUTTGART      CLEAR     73  68  83 CALM      30.02S
MONTICELLO     CLEAR     72  68  87 CALM      30.00F

$$





USA.gov is the U.S. government's official web portal to all federal, state and local government web resources and services.